{"data":{"norad_id":47227,"intl_designator":"2020-091A","name":"GONETS-M 20","alt_names":[],"object_type":"PAYLOAD","status":"ACTIVE","operator":null,"country":"CIS","launch_date":"2020-12-03","launch_site_code":"PLMSC","launch_vehicle":null,"mission":null,"orbit_class":"UNKNOWN","rcs_meters":null,"size_class":null,"mass_kg":null,"dimensions":null,"purposes":[],"wikipedia_slug":null,"has_3d_model":false,"image_url":null,"decayed_at":null,"tle_current":{"epoch":"2026-09-20T22:59:23.018784Z","epoch_age_seconds":39838,"freshness":"FRESH","line1":"1 47227U 20091A   26263.95790531  .00000041  00000+0  22373-3 0  9996","line2":"2 47227  82.5002 242.8917 0020470 335.5099  24.5006 12.42896511262973","mean_motion":12.42896511,"eccentricity":0.002047,"inclination_deg":82.5002,"raan_deg":242.8917,"arg_perigee_deg":335.5099,"mean_anomaly_deg":24.5006,"bstar":0.00022373,"rev_number":26297,"period_min":115.8583990908,"perigee_km":1478.2333894577,"apogee_km":1510.4633445502,"semimajor_km":7872.485367004,"source":"CELESTRAK","updated_at":"2026-09-21T09:00:07.474247Z"}}}